Location: Barrio La Cañada
(40.5999°N, 4.4959°W)
Time: 15:35:12
(UTC+00:00)

Daily predictions for brighter satellites

Satellite Brightness Start Highest point End
(mag) Time Altitude Azimuth Time Altitude Azimuth Time Altitude Azimuth
Cosmos 371 Rocket 3.6 19:43:30 10° NNW 19:48:20 69° WSW 19:53:06 10° S
Okean 1 Rocket 4.4 19:47:59 10° SE 19:51:11 20° E 19:54:24 10° NE
Cosmos 1980 Rocket 4.2 19:48:58 10° NNE 19:51:53 14° NE 19:54:46 10° ENE
ARIANE 6 FM1 Upper Stage 2.5 19:49:30 10° NW 19:53:29 85° NE 19:57:28 10° SE
Cosmos 2084 4.0 19:50:11 10° SW 19:54:16 60° NW 19:58:22 10° NNE
SL-24 R/B 4.1 19:51:56 10° NNE 19:56:25 64° E 20:00:40 10° S
CZ-4 R/B 1.5 19:54:18 10° SSE 19:57:46 44° ENE 20:01:15 10° N
CZ-4B R/B 4.0 19:56:54 10° SSE 20:00:47 59° ENE 20:04:45 10° N
ASTEX 1 3.6 19:58:57 10° SSE 20:03:44 53° E 20:08:34 10° N
SPOT 5 2.6 19:59:40 10° SSE 20:03:58 85° WSW 20:08:19 10° NNW
GEOS 3 Rocket 3.9 19:59:49 10° SSE 20:05:05 75° SW 20:10:29 10° NW
Cosmos 1862 3.7 20:01:50 10° NNW 20:05:20 56° W 20:08:48 10° S
CZ-4B DEB 4.5 20:00:01 10° SSE 20:05:22 54° ENE 20:10:45 10° N
Cosmos 2056 Rocket 3.6 20:01:01 10° SSW 20:06:25 88° ESE 20:11:50 10° NNE
Cosmos 1833 Rocket 2.6 20:01:48 10° SSW 20:07:22 74° ESE 20:12:58 10° NNE
CZ-4B R/B 3.8 20:02:31 10° SE 20:07:46 41° ENE 20:13:02 10° N
CSL-04 Rocket 3.8 20:02:49 10° SSE 20:08:20 90° WSW 20:13:51 10° NNW
Cosmos 1624 Rocket 4.0 20:04:14 10° SSW 20:09:24 90° E 20:14:36 10° NNE
Terra 2.3 20:07:32 10° SE 20:11:56 42° ENE 20:16:22 10° N
Sich 1 Rocket 4.4 20:10:06 10° SSE 20:13:54 30° E 20:17:44 10° NNE
ATLAS 5 CENTAUR R/B 4.2 20:15:59 10° WNW 20:19:23 19° WSW 20:23:14 10° SSW
Cosmos 2058 3.8 20:16:47 10° NNW 20:20:30 45° W 20:24:12 10° SSW
Resurs 01 Rocket 4.4 20:19:28 10° SW 20:22:09 16° W 20:24:52 10° NW
SJ 16-02 2.5 20:18:10 10° NNW 20:22:09 40° WSW 20:26:07 10° S
MetOp-B 4.3 20:17:16 10° SSE 20:22:28 56° ENE 20:27:42 10° N
PAYLOAD B 4.2 20:18:39 10° SSE 20:24:06 69° ENE 20:29:36 10° N
USA 229 DEB 4.2 20:19:39 10° NNW 20:27:14 64° NE 20:34:05 16° SE
USA 229 4.3 20:19:42 10° NNW 20:27:17 63° NE 20:34:07 16° SE
Cosmos 44 Rocket 3.7 20:23:16 10° S 20:28:00 44° ESE 20:32:52 10° NE
Cosmos 1743 4.4 20:27:14 10° NE 20:28:22 12° ENE 20:28:34 12° ENE
ISS -3.5 20:26:03 10° SSW 20:29:13 43° SE 20:32:26 10° ENE
Cosmos 1459 Rocket 4.1 20:23:31 10° SSE 20:29:36 54° E 20:35:36 10° NNE
SKYMED 3 4.3 20:29:00 10° NNE 20:32:54 63° E 20:36:49 10° S
Cosmos 2100 Rocket 4.0 20:27:01 10° S 20:33:06 65° E 20:39:19 10° NNE
IRAS Rocket 4.5 20:31:03 10° S 20:36:29 71° WSW 20:41:58 10° NNW
ATLAS 2AS CENTAUR R/B 3.8 20:29:47 10° WSW 20:36:30 49° NW 20:43:07 10° NNE
Meteor 2-17 Rocket 4.5 20:30:51 10° N 20:36:59 84° W 20:43:02 10° S
ADEOS 3.6 20:32:34 14° SSE 20:37:00 66° ENE 20:42:11 10° N
Spot 2 Rocket 4.0 20:36:58 19° SE 20:40:11 43° ENE 20:44:55 10° N
Cosmos 2151 Rocket 3.8 20:37:19 10° SSW 20:41:39 70° W 20:46:01 10° N
BREEZE-M DEB (TANK) 3.9 20:38:56 10° NW 20:41:48 45° NNE 20:47:10 15° E
SL-4 R/B 2.3 20:38:48 10° NW 20:42:34 52° NNE 20:44:44 23° E
Cosmos 2082 Rocket 3.1 20:40:45 18° SE 20:43:38 28° ESE 20:48:22 10° NE
Okean 2 Rocket 3.1 20:39:33 10° S 20:44:01 89° ESE 20:48:31 10° N
Cosmos 1536 Rocket 3.8 20:49:57 10° NNW 20:54:17 69° W 20:57:49 15° S
Cosmos 1607 4.2 20:48:35 10° S 20:54:20 45° ESE 21:00:11 10° NE
Cosmos 2233 Rocket 4.5 20:51:19 21° SE 20:54:48 39° E 21:00:28 10° NNE
IRS-1A Rocket 4.3 20:51:01 18° SSE 20:55:27 82° ENE 21:01:21 10° NNW
Cosmos 2228 3.8 20:55:35 28° ESE 20:56:13 30° E 20:59:49 10° NNE
Timation 1 Rocket 4.4 20:51:47 10° SSW 20:57:47 87° WNW 21:03:49 10° NNE
USA 186 2.0 20:58:27 37° ENE 20:58:27 37° ENE 21:00:45 10° N
Cosmos 292 Rocket 3.7 20:54:18 10° NNW 20:59:05 80° ENE 21:01:33 28° SSE
Okean O Rocket 1.6 20:57:28 30° SE 20:59:26 60° ENE 21:03:40 10° N
DELTA 2 R/B (1) 3.9 20:55:10 10° SW 21:00:22 41° SSE 21:03:11 24° E
ERS-1 Rocket 3.7 20:59:15 11° S 21:03:58 51° W 21:08:52 10° NNW
CZ-4C R/B 1.7 21:01:25 10° SW 21:05:20 72° NW 21:10:17 10° NNE
Cosmos 1725 Rocket 3.9 21:00:02 13° S 21:05:44 72° E 21:11:59 10° NNE
Cosmos 1452 Rocket 3.4 21:01:01 10° SSW 21:06:13 79° ESE 21:11:28 10° NNE
Cosmos 1697 Rocket 2.8 21:02:57 10° NNW 21:08:35 75° WSW 21:11:51 26° SSE
Cosmos 1741 Rocket 4.1 21:05:29 10° NNW 21:10:47 65° ENE 21:13:00 34° SE
SL-16 R/B 4.3 21:09:32 10° NNE 21:12:11 13° NE 21:14:50 10° ENE
Okean-O 2.5 21:10:27 34° SSE 21:12:17 82° ENE 21:16:41 10° N
ATLAS 3B R/B 2.9 21:09:02 10° NNW 21:16:48 88° ENE 21:20:47 30° SE
CZ-4B R/B 4.0 21:19:07 34° E 21:20:12 39° ENE 21:24:37 10° N
USA 245 4.4 21:18:48 34° SE 21:21:13 60° ENE 21:27:01 10° N
Cosmos 968 Rocket 3.9 21:16:07 10° NNW 21:21:17 60° WSW 21:24:03 27° S
Cosmos 1892 Rocket 3.4 21:18:00 10° N 21:22:19 79° E 21:23:28 48° SSE
Cosmos 1455 Rocket 3.1 21:19:52 25° SSW 21:22:25 79° W 21:26:50 10° N
Cosmos 1302 Rocket 3.9 21:21:11 27° S 21:23:56 67° ESE 21:29:04 10° NNE
Cosmos 2016 Rocket 4.0 21:19:35 16° S 21:24:49 88° WNW 21:31:05 10° N
Cosmos 2333 Rocket 4.3 21:22:02 10° NNE 21:25:12 15° NE 21:27:39 12° ENE
BREEZE-M DEB (TANK) 4.3 21:24:00 10° WNW 21:27:56 44° SSW 21:32:22 27° SSE
CZ-4 R/B 4.1 21:31:16 10° WSW 21:32:01 10° W 21:32:45 10° W
Cosmos 2061 Rocket 3.9 21:29:51 34° SSE 21:32:37 67° E 21:38:49 10° NNE
CZ-4B R/B 2.9 21:33:11 50° NE 21:33:11 50° NE 21:36:02 10° N
Cosmos 1782 2.5 21:32:58 65° SW 21:33:18 72° W 21:36:49 10° N
Cosmos 1544 Rocket 4.5 21:35:33 32° ENE 21:35:33 32° ENE 21:38:49 10° NNE
Cosmos 724 4.5 21:28:57 10° SW 21:35:00 75° WNW 21:40:58 10° NNE
SPOT 3 Rocket 3.5 21:34:29 47° SE 21:35:53 70° ENE 21:41:01 10° N
NOSS 3-3 (A) 3.5 21:34:26 41° S 21:36:00 59° ESE 21:41:39 10° NE
Cosmos 1980 Rocket 2.1 21:31:02 10° NNW 21:36:46 82° ENE 21:38:33 46° SSE
BREEZE-M DEB (TANK) 2.9 21:31:12 10° SW 21:36:17 57° SSW 21:36:17 57° SSW
Cosmos 1850 Rocket 4.3 21:39:48 10° NNW 21:44:52 58° WSW 21:46:30 40° SSW
Terra 4.0 21:46:18 10° SW 21:49:37 19° W 21:52:57 10° NW
IRS-1C Rocket 4.0 21:51:54 59° SE 21:52:54 78° ENE 21:58:12 10° N
Milstar 3 4.0 21:46:50 10° WSW 21:53:24 34° S 21:54:31 33° S
CZ-2C R/B 4.4 21:55:17 20° N 21:55:17 20° N 21:56:20 10° N
Cosmos 1758 Rocket 4.1 21:49:52 10° N 21:53:42 46° ENE 21:53:42 46° ENE
Gbstr 26 Del rocket 3.2 21:56:06 10° NW 22:00:49 62° NNE 22:00:52 62° NE
Cosmos 1743 4.3 21:58:45 10° NW 22:00:44 23° WNW 22:00:44 23° WNW
Cosmos 2360 Rocket 4.2 21:58:58 10° N 22:02:31 17° NE 22:04:14 15° ENE
NOSS 3-3 (C) 3.4 22:02:52 59° SSW 22:03:52 81° ESE 22:09:46 10° NE
ISS -1.6 22:03:13 10° W 22:06:08 27° NNW 22:08:14 15° NNE
Geosat 3.8 22:07:04 10° NNE 22:12:06 86° ESE 22:12:24 79° S
Cosmos 2237 4.1 22:06:51 10° NNW 22:12:37 72° ENE 22:13:13 66° ESE
Ariane Rocket 3.0 22:12:25 63° SW 22:12:57 68° W 22:17:59 10° NNW
USA 305 4.3 22:10:18 10° NNW 22:13:09 26° N 22:13:09 26° N
Meteor 2-9 4.5 22:10:47 10° N 22:16:15 77° E 22:16:32 75° ESE
SL-4 R/B 4.1 22:16:34 10° WNW 22:18:10 19° W 22:18:10 19° W
Cosmos 1602 Rocket 4.5 22:15:36 10° N 22:18:42 40° NE 22:18:42 40° NE
Cosmos 1437 Rocket 4.5 22:21:47 26° N 22:21:47 26° N 22:23:26 10° N
Cosmos 2219 Rocket 4.3 22:16:57 10° NNE 22:19:57 14° NE 22:21:47 13° ENE
Cosmos 2082 Rocket 3.3 22:22:24 12° SW 22:27:26 42° WNW 22:32:51 10° N
Cosmos 2369 3.6 22:22:16 10° NNW 22:27:58 75° WSW 22:28:18 72° SW
Cosmos 2151 3.8 22:25:56 10° N 22:28:56 47° NNW 22:28:56 47° NNW
Cosmos 2322 Rocket 3.5 22:25:36 10° N 22:30:24 28° NE 22:31:03 27° ENE
Cosmos 1891 Rocket 4.5 22:31:35 58° SW 22:32:47 75° W 22:38:52 10° N
Okean O Rocket 4.2 22:34:42 10° WSW 22:35:58 11° W 22:37:22 10° WNW
Cosmos 1626 Rocket 4.5 22:33:29 10° NNW 22:37:03 44° WNW 22:37:03 44° WNW
Meteor 1-5 Rocket 4.4 22:34:38 10° N 22:40:03 59° ENE 22:40:03 59° ENE
USA 234 3.1 22:35:50 10° NE 22:42:23 73° SE 22:42:49 70° SSE
Cosmos 2278 4.1 22:44:11 10° NNW 22:49:38 53° ENE 22:49:38 53° ENE
COSMOS 2406 3.7 22:49:27 48° WSW 22:50:38 57° WNW 22:56:18 10° NNE
SL-16 R/B 2.3 22:51:32 10° NNW 22:56:47 73° NNE 22:56:47 73° NNE
Cosmos 2098 Rocket 4.0 23:02:09 55° NW 23:02:09 55° NW 23:06:17 10° N
Nadezhda 4 Rocket 3.8 22:56:50 10° N 23:02:51 86° NNW 23:02:51 86° NNW
Cosmos 2333 Rocket 2.3 23:04:35 10° NNW 23:09:39 71° NNW 23:09:39 71° NNW
Cosmos 1980 Rocket 4.5 23:17:31 10° WNW 23:19:55 13° W 23:20:18 13° W
Cosmos 2195 Rocket 4.4 23:14:50 10° N 23:20:43 79° NNE 23:20:43 79° NNE
Cosmos 2026 Rocket 4.0 23:21:15 10° N 23:27:17 77° NE 23:27:17 77° NE
ALOS 2 4.2 23:43:55 32° N 23:43:55 32° N 23:46:21 10° N
ARIANE 5 R/B 4.2 23:44:33 33° NNW 23:44:33 33° NNW 23:47:02 10° NNW
Cosmos 2360 Rocket 2.7 23:41:30 10° NNW 23:45:58 56° NW 23:45:58 56° NW
